Regional Weather Roundup
Issued by NWS

Home | Current Version | Previous Version | Text Only | Print | Product List | Glossary On
Versions: 1 2 3 4 5 6 7 8 9 10 11 12 13 14 15 16 17 18 19 20 21 22 23 24 25 26 27 28 29 30 31 32 33 34 35 36 37 38 39 40 41 42 43 44 45 46 47 48 49 50
000
ASUS43 KLSX 231907
RWRMO

WEATHER SUMMARY FOR MISSOURI
NATIONAL WEATHER SERVICE SPRINGFIELD MO
200 PM CDT WED APR 23 2014

NOTE: "FAIR" INDICATES FEW OR NO CLOUDS BELOW 12,000 FEET WITH NO
       SIGNIFICANT WEATHER AND/OR OBSTRUCTIONS TO VISIBILITY.
       CURRENT SKY AND/OR WEATHER CONDITIONS ARE NOT AVAILABLE FOR
       CHILLICOTHE AND FARMINGTON.

MOZ001>031-035>038-043-044-053-054-232000-
...NORTHERN AND WESTERN MISSOURI...

CITY           SKY/WX    TMP DP  RH WIND       PRES   REMARKS
KANSAS CTY INT MOSUNNY   70  39  32 SE23G31   29.84F
KANSAS C DTWN  SUNNY     72  40  31 SE15G26   29.84F
LEE`S SUMMIT   SUNNY     68  40  35 SE17G29   29.88F
ST JOSEPH      CLOUDY    64  42  44 SE12G22   29.84F
CHILLICOTHE      N/A     59  39  47 SE15G21   29.95F
KIRKSVILLE     CLOUDY    57  38  48 E16       29.99F

$$
MOZ066>068-077>081-088>096-101>105-232000-
...SOUTHWEST MISSOURI...

CITY           SKY/WX    TMP DP  RH WIND       PRES   REMARKS
SPRINGFIELD    PTSUNNY   74  42  31 S15G24    29.93F
JOPLIN         SUNNY     78  46  32 S18G24    29.87F

$$
MOZ032>034-039>042-045>050-055>058-069>072-232000-
...CENTRAL MISSOURI...

CITY           SKY/WX    TMP DP  RH WIND       PRES   REMARKS
COLUMBIA       CLOUDY    62  36  37 E12       29.99F
JEFFERSON CITY CLOUDY    65  34  31 SE10      29.99F
ROLLA          CLOUDY    69  33  26 SE8       29.99F
SEDALIA        CLOUDY    67  39  35 SE16      29.96F
WHITEMAN AFB   PTSUNNY   66  32  28 SE15G23   29.93F
OSAGE BEACH    CLOUDY    66  36  32 SE6       29.98F

$$
MOZ051-052-059>065-232000-
...EAST CENTRAL MISSOURI...

CITY           SKY/WX    TMP DP  RH WIND       PRES   REMARKS
ST LOUIS INTL  MOSUNNY   64  37  36 E12G18    30.06F
SPIRIT OF STL  PTSUNNY   63  39  41 E10       30.05F
ST CHARLES     MOSUNNY   62  35  36 SE9G16    30.06F

$$
MOZ072>076-082>087-097>100-106>115-232000-
...SOUTH CENTRAL AND SOUTHEAST MISSOURI...

CITY           SKY/WX    TMP DP  RH WIND       PRES   REMARKS
CAPE GIRARDEAU SUNNY     68  39  34 E8        30.04F
FARMINGTON     SUNNY     66  37  34 E3        30.05F
POPLAR BLUFF   SUNNY     70  39  32 SE8       30.02F
WEST PLAINS    SUNNY     70  37  29 S10       30.00F

$$



USA.gov is the U.S. government's official web portal to all federal, state and local government web resources and services.